Regional Weather Roundup
Issued by NWS State College, PA

Home | Current Version | Previous Version | Graphics & Text | Print | Product List | Glossary Off
Versions: 1 2 3 4 5 6 7 8 9 10 11 12 13 14 15 16 17 18 19 20 21 22 23 24 25 26 27 28 29 30 31 32 33 34 35 36 37 38 39 40 41 42 43 44 45 46 47 48 49 50

000
ASUS41 KCTP 032110
RWRCTP

REGIONAL WEATHER ROUNDUP
NATIONAL WEATHER SERVICE STATE COLLEGE PA
400 PM EST TUE MAR 03 2015

Note: "fair" indicates few or no clouds below 12,000 feet with no
significant weather and/or obstructions to visibility.

* = STATION THAT DOES NOT REPORT PRECIPITATION /E.G. RAIN...SNOW...ETC/
    THUNDER OR FOG.

PAZ002>004-007>009-013>016-020>023-029>032-032200-
WESTERN PENNSYLVANIA

CITY           SKY/WX    TMP DP  RH WIND       PRES   REMARKS
ERIE           CLOUDY    34  28  79 S24G33    29.62F
MEADVILLE      FRZ RAIN  32  29  88 S9        29.68F
FRANKLIN*      CLOUDY    30  28  93 CALM      29.75F
NEW CASTLE     MIX PCPN  32  30  93 VRB6      29.75F VSB 3/4
BEAVER COUNTY  LGT SNOW  32  30  93 SE9G16    29.74F
BUTLER*        CLOUDY    34  30  86 S9        29.77F
PITTSBURGH INT LGT RAIN  35  34  96 SE8       29.76F FOG
PITTSBURGH     LGT RAIN  36  31  82 S10       29.76F
INDIANA*       CLOUDY    32  30  93 SE13G22   29.85F FOG
LATROBE        LGT RAIN  39  39 100 S7        29.83F FOG
WASHINGTON CO* CLOUDY    39  37  93 S7        29.79F
$$

PAZ004>006-010>012-017>019-024>028-033>037-041-042-045-046-049>053-032200-
CENTRAL PENNSYLVANIA

CITY           SKY/WX    TMP DP  RH WIND       PRES   REMARKS
BRADFORD       MIX PCPN  22  17  81 S10       29.76F WCI  11
DUBOIS         FRZ RAIN  28  25  88 SE15G24   29.77F FOG
CLEARFIELD     MIX PCPN  25  21  85 SE7       29.89F FOG
JOHNSTOWN      FRZ RAIN  28  24  85 S8G20     29.87S FOG
ALTOONA        FRZ RAIN  29  20  69 S13       29.95F
STATE COLLEGE  FRZ RAIN  25  19  80 S8        29.98
WILLIAMSPORT   LGTSLEET  24  19  81 E13       30.04F VSB 3/4 WCI  12
SELINSGROVE    MIX PCPN  27  20  75 S13G21    30.08F
FT INDIANTOWN  LGTSLEET  25  21  86 SE8       30.11F FOG
CAPITAL CITY   MIX PCPN  28  22  78 SE10      30.11F
HARRISBURG     FRZ RAIN  28  22  78 SE9       30.11F
YORK           CLOUDY    28  21  75 SE15G21   30.10F
$$

PAZ038>040-043-044-047-048-054-055-060>062-067>071-032200-
EASTERN PENNSYLVANIA

CITY           SKY/WX    TMP DP  RH WIND       PRES   REMARKS
SCRANTON       MIX PCPN  25  16  68 S8        30.05F
MOUNT POCONO   LGT SNOW  18  14  84 SE14      30.02F VSB 1   WCI   4
ALLENTOWN      FRZ RAIN  27  19  74 SE6       30.16F
QUAKERTOWN*    CLOUDY    27  21  80 S8        30.17F
READING        MIX PCPN  27  21  78 SE7       30.14F
LANCASTER      MIX PCPN  26  23  88 SE12      30.12F FOG
COATESVILLE    LGT SNOW  27  25  93 SE5       30.15F
POTTSTOWN      FRZ RAIN  27  23  85 VRB3      30.20F FOG
BLUE BELL      CLOUDY    30  25  80 S5        30.19F
DOYLESTOWN     LGT SNOW  25  22  88 VRB6      30.18F FOG
WILLOW GROVE   NOT AVBL
NORTH PHILA    MIX PCPN  31  21  66 S6        30.23F
PHILADELPHIA   FRZ RAIN  30  24  78 S7        30.22F
$$



USA.gov is the U.S. government's official web portal to all federal, state and local government web resources and services.